SCP
0 0 0 0 0 0 0 0 0 0 0 0 0 0 0 0 0 0 0 0 0 0 0 0 0 0 0 0 0 0 0 0 0 0 0 0 0 0 0 0 0 0 0
0 0 0 0 0 0 0 0 0 0 0 0 0 0 0 0 0 0 0 0 0 0 0 0 0 0 0 0 0 0 0 0 0 0 0 0 0 0 0 0 0 0 0
0 0 0 0 0 0 0 0 0 0 0 0 0 0 0 0 0 0 0 0 0 0 0 0 0 0 0 0 0 0 0 0 0 0 0 0 0 0 0 0 0 0 0
0 0 0 0 0 0 0 0 0 0 0 0 0 0 0 0 0 0 0 0 0 0 0 0 0 0 0 0 0 0 0 0 0 0 0 0 0 0 0 0 0 0 0
0 0 0 0 0 0 0 0 0 0 0 0 0 0 0 0 0 0 0 0 0 0 0 0 0 0 0 0 0 0 0 0 0 0 0 0 0 0 0 0 0 0 0
0 0 0 0 0 0 0 0 0 0 0 0 0 0 0 0 0 0 0 0 0 0 0 0 0 0 0 0 0 0 0 0 0 0 0 0 0 0 0 0 0 0 0
0 0 0 0 0 0 0 0 0 0 0 0 0 0 0 0 0 0 0 0 0 0 0 0 0 0 0 0 0 0 0 0 0 0 0 0 0 0 0 0 0 0 0
0 0 0 0 0 0 0 0 0 0 0 0 0 0 0 0 0 0 0 0 0 0 0 0 0 0 0 0 0 0 0 0 0 0 0 0 0 0 0 0 0 0 0
0 0 0 0 0 0 0 0 0 0 0 0 0 0 0 0 0 0 0 0 0 0 0 0 0 0 0 0 0 0 0 0 0 0 0 0 0 0 0 0 0 0 0
0 0 0 0 0 0 0 0 0 0 0 0 0 0 0 0 0 0 0 0 0 0 0 0 0 0 0 0 0 0 0 0 0 0 0 0 0 0 0 0 0 0 0
0 0 0 0 0 0 0 0 0 0 0 0 0 0 0 0 0 0 0 0 0 0 0 0 0 0 0 0 0 0 0 0 0 0 0 0 0 0 0 0 0 0 0
0 0 0 0 0 0 0 0 0 0 0 0 0 0 0 0 0 0 0 0 0 0 0 0 0 0 0 0 0 0 0 0 0 0 0 0 0 0 0 0 0 0 0
0 0 0 0 0 0 0 0 0 0 0 0 0 0 0 0 0 0 0 0 0 0 0 0 0 0 0 0 0 0 0 0 0 0 0 0 0 0 0 0 0 0 0
0 0 0 0 0 0 0 0 0 0 0 0 0 0 0 0 0 0 0 0 0 0 0 0 0 0 0 0 0 0 0 0 0 0 0 0 0 0 0 0 0 0 0
0 0 0 0 0 0 0 0 0 0 0 0 0 0 0 0 0 0 0 0 0 0 0 0 0 0 0 0 0 0 0 0 0 0 0 0 0 0 0 0 0 0 0
0 0 0 0 0 0 0 0 0 0 0 0 0 0 0 0 0 0 0 0 0 0 0 0 0 0 0 0 0 0 0 0 0 0 0 0 0 0 0 0 0 0 0
0 0 0 0 0 0 0 0 0 0 0 0 0 0 0 0 0 0 0 0 0 0 0 0 0 0 0 0 0 0 0 0 0 0 0 0 0 0 0 0 0 0 0
0 0 0 0 0 0 0 0 0 0 0 0 0 0 0 0 0 0 0 0 0 0 0 0 0 0 0 0 0 0 0 0 0 0 0 0 0 0 0 0 0 0 0
0 0 0 0 0 0 0 0 0 0 0 0 0 0 0 0 0 0 0 0 0 0 0 0 0 0 0 0 0 0 0 0 0 0 0 0 0 0 0 0 0 0 0
0 0 0 0 0 0 0 0 0 0 0 0 0 0 0 0 0 0 0 0 0 0 0 0 0 0 0 0 0 0 0 0 0 0 0 0 0 0 0 0 0 0 0
0 0 0 0 0 0 0 0 0 0 0 0 0 0 0 0 0 0 0 0 0 0 0 0 0 0 0 0 0 0 0 0 0 0 0 0 0 0 0 0 0 0 0
0 0 0 0 0 0 0 0 0 0 0 0 0 0 0 0 0 0 0 0 0 0 0 0 0 0 0 0 0 0 0 0 0 0 0 0 0 0 0 0 0 0 0
0 0 0 0 0 0 0 0 0 0 0 0 0 0 0 0 0 0 0 0 0 0 0 0 0 0 0 0 0 0 0 0 0 0 0 0 0 0 0 0 0 0 0
0 0 0 0 0 0 0 0 0 0 0 0 0 0 0 0 0 0 0 0 0 0 0 0 0 0 0 0 0 0 0 0 0 0 0 0 0 0 0 0 0 0 0
0 0 0 0 0 0 0 0 0 0 0 0 0 0 0 0 0 0 0 0 0 0 0 0 0 0 0 0 0 0 0 0 0 0 0 0 0 0 0 0 0 0 0
0 0 0 0 0 0 0 0 0 0 0 0 0 0 0 0 0 0 0 0 0 0 0 0 0 0 0 0 0 0 0 0 0 0 0 0 0 0 0 0 0 0 0
Wind_Speed
3 3 3 3 3 3 3 3 4 5 6 7 7 7 7 7 7 6 6 11 11 11 11 10 10 9 9 9 9 8 9 9 8 9 9 8 9 9 9 9 9 8 8
3 2 4 3 3 3 3 3 5 5 5 5 7 7 7 6 6 6 6 7 12 12 12 11 10 9 9 10 10 9 9 9 8 9 9 9 9 9 8 8 8 8 8
3 3 3 3 3 3 4 3 6 4 5 5 6 6 6 6 6 7 6 5 7 11 12 11 10 10 10 10 10 10 9 9 9 9 9 9 9 9 9 8 8 8 7
4 3 2 3 3 3 3 3 3 4 4 5 5 5 5 5 6 6 5 6 5 5 9 12 11 10 10 10 10 10 9 9 9 9 9 9 9 9 9 9 9 8 8
3 3 2 2 3 2 3 3 3 3 4 4 5 4 5 5 5 5 7 7 7 6 5 8 10 11 11 11 10 10 9 9 9 9 9 9 9 10 10 10 9 9 9
3 3 2 3 3 3 3 3 4 3 3 3 4 5 5 5 4 5 6 6 6 7 7 6 5 8 11 11 11 10 10 9 9 10 10 10 10 10 10 10 10 10 10
2 3 2 3 2 3 3 3 3 4 3 2 2 4 4 5 5 4 4 4 6 6 5 6 5 5 5 10 12 11 10 9 10 10 11 11 11 11 11 11 11 11 11
2 2 3 2 3 3 3 3 2 1 2 0 0 1 2 3 3 4 4 4 5 4 5 6 6 6 5 5 9 12 11 10 11 11 11 11 11 11 11 11 11 11 11
2 2 2 2 2 2 2 2 1 1 1 1 1 2 0 1 2 3 4 4 5 4 4 5 6 7 7 6 6 10 11 11 11 11 11 11 11 11 11 11 11 11 11
2 2 2 2 2 2 2 2 1 1 0 1 1 1 3 2 0 2 3 4 4 4 4 4 5 6 6 5 7 11 11 11 11 11 11 11 11 11 12 11 11 11 11
2 2 2 2 2 2 2 2 2 1 0 1 0 1 2 1 1 0 2 3 3 3 3 4 3 4 5 5 5 9 10 10 10 10 10 10 10 11 11 11 11 11 11
2 2 2 2 2 2 2 2 2 2 1 2 1 1 0 1 1 0 1 2 2 3 3 3 3 3 3 4 6 9 8 9 9 9 9 9 9 9 10 10 10 10 11
2 2 2 2 2 2 2 2 2 2 2 2 2 2 2 2 1 0 1 1 2 2 2 2 2 2 3 3 4 6 7 7 7 7 8 8 8 8 9 9 10 10 11
2 2 2 2 3 2 2 2 1 2 2 2 2 2 2 2 1 1 1 0 1 2 2 3 2 2 2 3 5 2 4 6 6 6 6 7 7 7 8 8 9 10 10
2 3 3 3 3 3 2 2 1 2 2 1 2 2 2 2 1 1 1 2 2 0 1 2 1 3 2 2 3 2 3 7 6 5 5 6 6 6 7 7 8 8 9
3 4 4 4 4 3 3 2 1 1 2 2 1 2 1 1 1 1 0 1 2 2 0 2 1 2 2 1 3 2 3 5 4 4 4 5 5 5 6 6 6 7 8
4 4 4 4 3 3 3 3 2 2 1 2 2 2 2 1 1 1 0 0 1 1 0 1 1 1 2 1 2 1 1 1 3 4 4 4 4 5 5 5 6 6 7
4 4 4 4 3 3 3 3 2 2 1 1 1 1 2 2 1 0 0 0 0 0 0 1 1 1 1 1 1 1 1 1 2 5 4 4 4 4 4 5 5 6 6
5 4 4 4 4 3 3 3 3 2 2 2 1 1 1 2 2 1 1 1 0 1 0 1 0 0 0 0 0 0 0 1 1 2 3 3 3 4 4 4 5 5 6
5 5 4 4 4 3 3 3 3 3 2 2 1 1 1 2 1 1 2 2 1 1 1 1 1 1 1 0 1 1 1 0 1 1 1 1 2 1 1 2 4 5 5
5 4 4 4 4 3 3 3 3 3 3 2 2 1 1 1 2 1 1 1 2 2 2 2 1 1 1 1 1 1 1 1 1 1 1 1 1 1 0 1 2 4 5
4 4 4 4 4 3 3 2 3 4 3 3 2 2 2 3 3 3 1 2 3 3 3 2 2 2 2 1 1 2 2 2 2 0 3 2 2 2 1 2 4 4 4
4 4 5 5 5 4 5 5 5 4 3 3 3 2 2 2 3 3 5 6 4 3 4 5 4 3 3 2 2 3 3 3 3 2 3 3 2 2 1 2 3 2 3
4 4 4 5 4 4 6 5 5 5 4 3 3 3 3 3 2 2 2 2 2 2 3 4 3 3 3 2 3 3 3 4 4 2 3 4 2 3 2 0 3 1 2
4 4 4 5 5 5 6 6 5 4 3 4 3 3 3 3 2 2 4 3 3 2 1 1 2 2 3 2 3 3 3 4 3 2 1 4 3 3 3 2 3 5 2
4 4 4 4 5 4 6 6 6 3 3 3 3 3 3 3 2 4 5 4 4 3 3 3 4 5 4 3 4 5 4 4 4 3 0 3 3 4 3 1 1 1 2
Wind_Direction
84 88 87 77 73 77 83 75 74 71 72 72 71 70 69 66 70 69 68 56 52 55 61 66 68 69 68 67 66 64 61 61 61 61 60 59 58 55 51 49 45 43 45
90 91 92 81 77 76 73 72 81 79 76 73 71 68 66 69 70 70 72 74 61 52 52 58 61 63 64 65 63 63 63 61 61 62 61 60 56 53 50 49 45 42 42
94 92 89 96 91 91 94 87 85 83 85 84 77 70 68 63 68 67 65 64 73 65 52 50 50 54 61 65 63 63 63 60 59 61 60 58 55 52 50 49 47 45 42
84 86 88 92 99 96 95 96 96 94 87 80 75 69 73 70 65 63 66 67 60 62 64 51 45 50 58 63 63 64 65 62 60 61 60 57 54 53 50 48 47 45 44
79 89 84 87 102 102 99 103 98 92 90 85 84 74 67 66 64 60 59 58 62 54 59 66 57 57 56 57 57 59 62 62 63 63 62 58 55 51 49 46 45 44 43
73 87 105 108 106 112 106 105 106 94 87 90 91 83 74 74 66 57 55 57 54 52 46 46 59 72 61 53 50 52 56 60 63 64 63 60 55 51 48 44 42 40 39
82 88 93 102 105 103 109 113 112 110 104 110 123 111 95 75 67 65 54 55 59 51 50 52 45 53 74 64 49 46 49 58 63 63 64 61 56 52 49 47 45 44 41
84 90 93 104 110 109 117 111 114 112 106 113 221 171 149 125 84 68 65 55 57 57 49 50 57 56 55 61 58 45 48 57 64 65 63 59 54 52 50 48 46 44 42
76 81 89 107 111 121 116 114 132 153 132 113 2 320 289 94 116 93 68 67 61 55 53 48 55 53 55 54 58 54 46 53 60 61 60 57 54 52 49 47 46 43 40
87 83 91 97 108 103 115 124 107 113 99 126 115 18 12 46 212 129 116 84 68 56 51 53 55 55 52 53 57 52 51 50 54 57 56 54 53 51 48 46 44 42 40
95 100 93 98 102 109 106 100 100 73 57 30 67 109 97 102 306 52 119 118 104 77 57 51 52 50 45 48 47 54 51 47 48 50 50 50 50 49 47 45 43 40 37
125 117 113 116 114 109 109 99 100 89 51 53 40 74 82 72 75 77 123 128 107 90 79 62 52 52 47 47 53 54 50 46 45 43 44 44 44 43 41 40 39 35 33
145 135 139 137 116 103 98 102 103 90 100 83 53 58 57 42 28 31 125 118 117 121 107 93 61 55 51 49 63 54 64 50 41 40 40 39 38 36 33 32 33 31 28
153 147 149 133 120 120 123 116 107 95 92 99 82 74 79 61 35 35 19 114 156 135 119 90 86 61 48 51 53 17 67 67 48 41 40 37 36 34 30 31 29 26 23
159 154 151 143 132 132 134 135 117 107 97 88 94 98 88 82 64 42 15 308 304 247 114 99 86 73 61 54 38 33 50 71 54 43 40 36 32 30 29 28 27 24 20
168 166 164 159 153 149 144 137 122 100 118 105 97 104 96 93 81 83 19 329 322 322 18 82 77 82 68 67 69 35 57 83 66 49 42 36 30 28 29 29 26 21 16
177 175 172 171 162 158 155 151 161 156 150 139 147 141 131 103 119 130 140 38 4 346 106 100 109 105 111 69 75 47 42 34 75 76 53 41 32 27 26 26 22 17 13
185 184 173 174 168 174 175 169 171 175 172 171 163 166 159 147 159 137 176 157 61 347 230 154 152 123 104 72 58 32 42 47 51 80 68 46 35 29 25 22 19 13 10
182 182 183 183 183 188 186 187 191 192 191 203 210 209 198 184 183 166 198 201 163 144 217 220 148 108 180 90 13 270 87 40 46 106 111 88 51 36 30 25 20 13 9
188 186 187 190 194 199 198 194 197 202 201 203 211 220 229 224 228 205 197 199 197 191 194 216 216 210 186 221 252 266 258 170 316 23 64 80 104 104 64 35 20 14 11
195 192 190 192 195 206 215 208 200 206 209 200 197 203 203 24 9 325 280 228 212 217 216 225 233 236 224 234 264 279 281 266 266 298 292 303 277 292 197 117 43 18 6
195 193 198 197 196 199 162 204 238 213 210 204 205 203 179 181 166 182 223 286 291 263 254 244 249 255 260 261 276 271 280 278 272 293 285 288 294 301 334 14 43 25 359
192 199 202 200 201 175 164 188 224 234 223 225 226 218 208 193 203 195 180 194 210 243 272 278 274 281 277 272 263 265 274 289 302 321 288 277 282 287 296 66 68 19 355
187 197 199 196 195 173 166 183 206 228 221 220 229 231 226 226 223 238 230 223 227 217 234 247 269 286 294 289 277 281 281 271 268 258 273 282 292 294 294 218 123 82 344
189 195 193 195 198 186 174 186 207 216 218 222 230 237 243 239 156 208 235 230 228 219 163 167 337 331 346 328 286 257 256 262 269 264 263 281 296 295 279 247 171 176 206
192 193 190 200 204 200 164 182 212 220 224 225 224 228 225 239 200 219 236 234 235 239 231 202 201 207 225 209 225 248 261 268 277 274 259 281 293 298 278 244 294 270 236